Zurück zum Katalog

STARLINK-35873

AktivKommunikationVLEO
NORAD 67860·PAYLOAD·🇺🇸 United States

Gestartet Feb 20, 2026 von Vandenberg Space Force Base

Loading…

Nächste Überflüge (nächste 24 Stunden)

TLE

AktuellSource: CelesTrak SupGP

Epoche: Sep 14, 2026, 22:49 UTC

1 67860C 26034L   26257.95118056  .00018153  00000+0  53583-3 0  2570
2 67860  53.1598  43.3552 0001504  94.5298  53.1265 15.34410212    15

Verfolge STARLINK-35873 in Echtzeit mit AllMySat

Download on the App Store